Powrót do katalogu

SL-8 R/B

AktywnyPO
NORAD 8597·ROCKET BODY·🇷🇺 Russia

Wystrzelony Jan 20, 1976 z Plesetsk Cosmodrome

Loading…

Następne Przeloty (najbliższe 24 godziny)

TLE

ŚwieżeSource: Space-Track

Epoka: Sep 14, 2026, 00:31 UTC

1 08597U 76005B   26257.02200131  .00000095  00000-0  82202-4 0  9990
2 08597  82.9681  93.6377 0025656 156.1222 357.5848 13.75515573540813

Śledź SL-8 R/B w czasie rzeczywistym z AllMySat

Download on the App Store